This demonstration page uses our WeatherBlox Daily Observations layout. Learn more.

Left ArrowRight Arrow

Hourly Observations for February 5, 2019

Temp ( °F °C ) Dew Point ( °F °C ) Humidity (%) Winds ( mph kmh ) Pressure ( in mb ) Visibility ( mi km ) Precip ( " mm )
12:53 am 00:53 Cloudy 55 12.8 54 12.2 96 96 Calm 30.04 1017 10 16 0.00 0.00
1:53 am 01:53 Cloudy 55 12.8 54 12.2 96 96 Calm 30.04 1017 10 16 0.00 0.00
2:12 am 02:12 Cloudy 54 12.2 53 11.7 97 97 Calm 30.05 1018 10 16 0.00 0.00
2:53 am 02:53 Cloudy 54 12.2 53 11.7 97 97 Calm 30.04 1017 10 16 0.00 0.00
3:53 am 03:53 Cloudy 53 11.7 53 11.7 100 100 Calm 30.03 1017 10 16 0.00 0.00
4:41 am 04:41 Cloudy 55 12.8 54 12.2 96 96 Calm 30.05 1018 10 16 0.00 0.00
4:50 am 04:50 Cloudy 55 13 54 12 94 94 Calm 30.05 1018 10 16 0.00 0.00
4:53 am 04:53 Cloudy 55 12.8 55 12.8 100 100 SW 3 6 30.04 1017 10 16 0.00 0.00
5:00 am 05:00 Cloudy 55 12.8 55 12.8 100 100 Calm 30.06 1018 10 16 0.00 0.00
5:20 am 05:20 Cloudy 56 13.3 55 12.8 97 97 SSW 3 6 30.06 1018 10 16 0.00 0.00
5:53 am 05:53 Cloudy 56 13.3 55 12.8 97 97 SW 5 7 30.05 1018 10 16 0.00 0.00
6:53 am 06:53 Cloudy 55 12.8 55 12.8 100 100 Calm 30.06 1018 10 16 0.00 0.00
7:06 am 07:06 Cloudy 55 12.8 55 12.8 100 100 Calm 30.08 1019 10 16 0.00 0.00
7:53 am 07:53 Cloudy 55 12.8 55 12.8 100 100 Calm 30.09 1019 10 16 0.00 0.00
8:00 am 08:00 Cloudy 56 13.3 56 13.3 100 100 Calm 30.10 1019 10 16 0.00 0.00
8:53 am 08:53 Cloudy 57 13.9 56 13.3 96 96 Calm 30.11 1020 10 16 0.00 0.00
9:53 am 09:53 Cloudy 59 15 58 14.4 96 96 Calm 30.13 1020 8 13 0.00 0.00
10:18 am 10:18 Cloudy 60 15.6 58 14.4 93 93 Calm 30.13 1020 10 16 0.00 0.00
10:28 am 10:28 Cloudy 61 16.1 58 14.4 90 90 Calm 30.13 1020 10 16 0.00 0.00
10:53 am 10:53 Cloudy 63 17.2 59 15 87 87 Calm 30.13 1020 10 16 0.00 0.00
11:07 am 11:07 Cloudy 63 17.2 59 15 87 87 Calm 30.13 1020 10 16 0.00 0.00
11:53 am 11:53 Cloudy 66 18.9 60 15.6 81 81 SW 3 6 30.12 1020 10 16 0.00 0.00
12:48 pm 12:48 Mostly Cloudy 72 22 61 16 69 69 N 8 13 30.09 1019 10 16 0.00 0.00
12:53 pm 12:53 Mostly Cloudy 70 21.1 60 15.6 71 71 NNE 5 7 30.11 1020 10 16 0.00 0.00
1:53 pm 13:53 Mostly Cloudy 70 21.1 60 15.6 71 71 NNE 6 9 30.08 1019 10 16 0.00 0.00
2:53 pm 14:53 Mostly Cloudy 71 21.7 60 15.6 68 68 Calm 30.06 1018 10 16 0.00 0.00
3:00 pm 15:00 Mostly Cloudy 72 22.2 60 15.6 66 66 Calm 30.04 1017 10 16 0.00 0.00
3:53 pm 15:53 Sunny 73 22.8 60 15.6 64 64 S 3 6 30.04 1017 10 16 0.00 0.00
4:53 pm 16:53 Sunny 73 22.8 59 15 62 62 S 5 7 30.03 1017 10 16 0.00 0.00
5:53 pm 17:53 Partly Cloudy 71 21.7 60 15.6 68 68 VRB 3 6 30.05 1018 10 16 0.00 0.00
6:53 pm 18:53 Clear 68 20 60 15.6 76 76 S 5 7 30.06 1018 10 16 0.00 0.00
7:53 pm 19:53 Clear 65 18.3 60 15.6 84 84 SSW 3 6 30.07 1018 10 16 0.00 0.00
8:53 pm 20:53 Clear 62 16.7 60 15.6 93 93 Calm 30.08 1019 10 16 0.00 0.00
9:53 pm 21:53 Partly Cloudy 61 16.1 59 15 93 93 Calm 30.10 1019 10 16 0.00 0.00
10:53 pm 22:53 Cloudy 59 15 58 14.4 96 96 Calm 30.10 1019 10 16 0.00 0.00
11:39 pm 23:39 Mostly Clear with Mist and Fog 56 13.3 56 13.3 100 100 WNW 3 6 30.11 1020 2 3 0.00 0.00
11:48 pm 23:48 Mostly Clear with Mist and Fog 55 13 55 13 100 100 Calm 30.11 1020 4 6 0.00 0.00
11:53 pm 23:53 Clear with Mist and Fog 57 13.9 57 13.9 100 100 Calm 30.10 1019 6 10 0.00 0.00

Powered by AerisWeather